Regional Weather Roundup
Issued by NWS Glasgow, MT

Home | Current Version | Previous Version | Text Only | Print | Product List | Glossary On
Versions: 1 2 3 4 5 6 7 8 9 10 11 12 13 14 15 16 17 18 19 20 21 22 23 24 25 26 27 28 29
000
ASUS45 KGGW 220315
RWRGGW
HOURLY REGIONAL WEATHER ROUNDUP FOR NORTHEAST MONTANA
NATIONAL WEATHER SERVICE GLASGOW MONTANA
900 PM MDT MON AUG 21 2017

NOTE: "FAIR" INDICATES FEW OR NO CLOUDS BELOW 12,000 FEET WITH NO
SIGNIFICANT WEATHER AND/OR OBSTRUCTIONS TO VISISBILITY.

NORTHEAST MONTANA


CITY           SKY/WX    TMP DP  RH WIND       PRES   REMARKS
GLASGOW        NOT AVBL
PLENTYWOOD       N/A     58  29  33 N10G20      N/A
WOLF POINT     CLEAR     65  30  27 N10       30.15R
JORDAN           N/A     62  33  33 NE7       30.16R
WINNETT          N/A     69  32  25 NE5         N/A
SIDNEY         CLEAR     61  36  39 N3        30.15R
GLENDIVE       CLEAR     63  35  35 NW8       30.17R
MALTA            N/A     75  44  33 SE1         N/A

FORT PECK REPORTS


CITY           SKY/WX    TMP DP  RH WIND       PRES   REMARKS
FORT PECK        N/A     68  36  30 NW8G16      N/A
THE PINES        N/A     68  32  26 N3          N/A

SOUTHEAST MONTANA


CITY           SKY/WX    TMP DP  RH WIND       PRES   REMARKS
BILLINGS       CLOUDY    73  33  23 E8        30.16R
MILES CITY     PTCLDY    69  32  25 NE8       30.15R
BAKER          CLEAR     61  35  37 N5        30.19R
LIVINGSTON     CLEAR     65  35  33 E7        30.18R

CENTRAL MONTANA


CITY           SKY/WX    TMP DP  RH WIND       PRES   REMARKS
HAVRE          PTCLDY    66  40  38 E7        30.14R
LEWISTOWN      CLOUDY    64  34  32 E5        30.20R
GREAT FALLS    PTCLDY    69  34  27 E8        30.15R
CUT BANK       MOCLDY    66  35  31 E6        30.16R
HELENA         CLEAR     71  37  28 W6        30.13S
BUTTE          CLEAR     70  36  28 VRB3      30.24R
BOZEMAN        CLEAR     64  37  36 SE8       30.18R

WESTERN MONTANA


CITY           SKY/WX    TMP DP  RH WIND       PRES   REMARKS
MISSOULA       CLEAR     76  37  24 N9        30.11R
KALISPELL      NOT AVBL

NORTH DAKOTA


CITY           SKY/WX    TMP DP  RH WIND       PRES   REMARKS
WILLISTON      CLEAR     54  37  52 N9        30.13R
DICKINSON      CLEAR     60  37  42 N7        30.14R
MINOT          CLEAR     60  40  47 W9        30.09R
BISMARCK       PTCLDY    61  46  57 W3        30.11R

SOUTHERN SASKATCHEWAN


CITY           SKY/WX    TMP DP  RH WIND       PRES   REMARKS
REGINA         PTCLDY    57  37  47 W3        30.13R
ESTEVAN        PTCLDY    50  37  62 NW8       30.12R
SWIFT CURRENT  CLEAR     63  34  34 N3        30.16R





USA.gov is the U.S. government's official web portal to all federal, state and local government web resources and services.